Location: Fontevrault
(47.1823°N, 0.0493°E)
Time: 01:13:36
(UTC+00:00)

ATLAS CENTAUR R/B - Visible Passes

Search period start: 27 October 2021 00:00
Search period end: 06 November 2021 00:00
Orbit: 459 x 683 km, 64.6° (Epoch: 22 October)

Date Brightness Start Highest point End Pass type
(mag) Time Alt. Az. Time Alt. Az. Time Alt. Az.
27 Oct 4.0 03:59:59 12° N 03:59:59 12° N 04:00:50 10° N visible
28 Oct 4.1 04:01:52 11° N 04:01:52 11° N 04:02:21 10° N visible
31 Oct 4.1 05:46:49 10° N 05:48:10 11° NNE 05:49:34 10° NE visible
01 Nov 4.1 05:48:13 10° N 05:50:20 13° NNE 05:52:31 10° NE visible
02 Nov 4.0 05:49:44 10° N 05:52:29 15° NNE 05:55:16 10° ENE visible
03 Nov 3.9 05:51:19 10° NNW 05:54:35 18° NNE 05:57:54 10° ENE visible
04 Nov 3.7 05:52:56 10° NNW 05:56:38 22° NE 06:00:24 10° E visible
05 Nov 4.3 04:17:15 10° N 04:18:14 11° NNE 04:19:13 10° NNE visible
05 Nov 3.4 05:54:35 10° NNW 05:58:38 28° NE 06:02:48 10° E visible
